Location: Goettingen
(51.5300°N, 9.9433°E)
Time: 08:57:08
(UTC+01:00)

ISS - Visible Passes

Search period start: 21 January 2021 00:00
Search period end: 31 January 2021 00:00
Orbit: 418 x 419 km, 51.6° (Epoch: 21 January)

Date Brightness Start Highest point End Pass type
(mag) Time Alt. Az. Time Alt. Az. Time Alt. Az.
21 Jan -1.5 17:55:49 10° S 17:57:43 14° SE 17:59:24 11° ESE visible
21 Jan -1.8 19:30:39 10° SW 19:32:21 26° SW 19:32:21 26° SW visible
22 Jan -3.0 18:43:07 10° SW 18:46:16 38° SSE 18:46:41 36° SE visible
22 Jan -0.2 20:19:32 10° W 20:19:38 11° W 20:19:38 11° W visible
23 Jan -2.4 17:55:43 10° SSW 17:58:38 28° SSE 18:00:58 14° E visible
23 Jan -2.2 19:31:48 10° WSW 19:33:55 36° WSW 19:33:55 36° WSW visible
24 Jan -3.7 18:44:04 10° WSW 18:47:25 66° SSE 18:48:08 48° ESE visible
24 Jan -0.3 20:20:49 10° W 20:21:05 12° W 20:21:05 12° W visible
25 Jan -3.3 17:56:24 10° SW 17:59:41 51° SSE 18:02:20 15° E visible
25 Jan -2.4 19:33:01 10° W 19:35:17 39° W 19:35:17 39° W visible
26 Jan -3.8 18:45:14 10° W 18:48:36 89° S 18:49:27 48° E visible
26 Jan -0.3 20:22:02 10° W 20:22:24 12° W 20:22:24 12° W visible
27 Jan -3.7 17:57:26 10° WSW 18:00:48 79° S 18:03:37 14° E visible
27 Jan -2.5 19:34:14 10° W 19:36:33 41° W 19:36:33 41° W visible
28 Jan -3.8 18:46:25 10° W 18:49:48 86° N 18:50:43 45° E visible
28 Jan -0.4 20:23:14 10° W 20:23:40 13° W 20:23:40 13° W visible
29 Jan -3.8 17:58:35 10° W 18:01:58 86° N 18:04:54 13° E visible
29 Jan -2.6 19:35:24 10° W 19:37:51 43° W 19:37:51 43° W visible
30 Jan -3.8 18:47:34 10° W 18:50:56 78° SSW 18:52:04 39° ESE visible
30 Jan -0.4 20:24:31 10° W 20:25:01 13° W 20:25:01 13° W visible
